Location: A�t Lahcen
(32.8243°N, 5.4246°W)
Time: 00:17:43
(UTC+00:00)

Cosmos 2278 Rocket - Pass Details

Date: 27 January 2021
Orbit: 840 x 847 km, 71.0° (Epoch: 26 February)

Event Time Altitude Azimuth Distance (km) Brightness Sun altitude
Exits shadow 05:18:46 68° 296° (WNW) 908 2.0 -25.4°
Maximum altitude 05:19:18 74° 252° (WSW) 880 2.0 -25.3°
Drops below altitude 10° 05:24:56 10° 168° (SSE) 2,455 4.8 -24.2°
Sets 05:27:22 0° 166° (SSE) 3,385 5.6 -23.7°
